CW5920 Weather Reports


time (UTC)temp
C
wind
direction
speed
KPH
gust
KPH
rain 1hr
cm
rain 24hr
cm
rain mn
cm
humidity
%
barometer
mb
20260901123017 25 0.0 0.0 0.00 0.00 0.00 75 1016.6
20260901122017 26 0.0 0.0 0.00 0.00 0.00 75 1016.4
20260901121016 26 0.0 0.0 0.00 0.00 0.00 74 1016.4
20260901120017 26 0.0 0.0 0.00 0.00 0.00 74 1016.4
20260901115017 26 0.0 0.0 0.00 0.00 0.00 73 1016.2
20260901114037 26 0.0 0.0 0.00 0.00 0.00 73 1016.3
20260901113017 26 0.0 0.0 0.00 0.00 0.00 73 1016.2
20260901112017 26 0.0 3.2 0.00 0.00 0.00 72 1016.1
20260901111016 26 0.0 0.0 0.00 0.00 0.00 72 1016.1
20260901110016 26 0.0 3.2 0.00 0.00 0.00 71 1016.0
20260901105016 27 158 1.6 9.7 0.00 0.00 0.00 71 1016.0
20260901104017 27 0.0 8.0 0.00 0.00 0.00 70 1016.0
20260901103016 27 158 1.6 9.7 0.00 0.00 0.00 70 1016.0
20260901102017 27 158 1.6 9.7 0.00 0.00 0.00 70 1016.0
20260901101036 27 158 1.6 11.3 0.00 0.00 0.00 70 1015.9
20260901100016 27 158 1.6 9.7 0.00 0.00 0.00 69 1015.9
20260901095017 27 158 1.6 8.0 0.00 0.00 0.00 69 1016.1
20260901094036 27 158 1.6 6.4 0.00 0.00 0.00 69 1016.2
20260901093017 27 158 1.6 9.7 0.00 0.00 0.00 68 1016.2
20260901092016 27 0.0 3.2 0.00 0.00 0.00 68 1016.2
20260901091016 27 158 1.6 16.1 0.00 0.00 0.00 67 1016.4
20260901090037 27 135 6.4 14.5 0.00 0.00 0.00 66 1016.3
20260901085016 27 158 6.4 16.1 0.00 0.00 0.00 66 1016.3
20260901084015 28 158 4.8 12.9 0.00 0.00 0.00 65 1016.4
20260901083015 28 135 6.4 14.5 0.00 0.00 0.00 64 1016.3
20260901082016 28 135 11.3 19.3 0.00 0.00 0.00 64 1016.3
20260901081016 28 158 8.0 19.3 0.00 0.00 0.00 63 1016.2
20260901080015 28 135 9.7 22.5 0.00 0.00 0.00 63 1016.1
20260901075015 28 158 9.7 20.9 0.00 0.00 0.00 62 1016.1
20260901074016 27 158 8.0 12.9 0.00 0.00 0.00 62 1016.1
20260901073016 27 135 4.8 9.7 0.00 0.00 0.00 61 1016.0
20260901072016 27 113 4.8 8.0 0.00 0.00 0.00 59 1016.0
20260901071035 27 113 4.8 9.7 0.00 0.00 0.00 57 1015.9
20260901070015 27 135 6.4 11.3 0.00 0.00 0.00 56 1015.9
20260901065015 27 113 3.2 6.4 0.00 0.00 0.00 55 1015.7
20260901064016 28 113 1.6 4.8 0.00 0.00 0.00 53 1015.6
20260901063055 28 113 3.2 6.4 0.00 0.00 0.00 52 1015.6
20260901062015 28 113 4.8 9.7 0.00 0.00 0.00 52 1015.5
20260901061035 28 113 6.4 11.3 0.00 0.00 0.00 51 1015.5
20260901060016 28 135 3.2 11.3 0.00 0.00 0.00 51 1015.5
20260901055016 28 135 1.6 4.8 0.00 0.00 0.00 50 1015.1
20260901054015 28 0.0 3.2 0.00 0.00 0.00 50 1015.1
20260901053015 28 135 1.6 6.4 0.00 0.00 0.00 50 1014.9
20260901052015 28 113 1.6 6.4 0.00 0.00 0.00 51 1014.9
20260901051015 28 113 1.6 3.2 0.00 0.00 0.00 52 1014.8
20260901050036 28 113 1.6 6.4 0.00 0.00 0.00 52 1014.8
20260901045015 28 113 3.2 6.4 0.00 0.00 0.00 52 1014.9
20260901044015 28 113 1.6 4.8 0.00 0.00 0.00 52 1014.8
20260901043015 28 113 1.6 4.8 0.00 0.00 0.00 52 1014.7
20260901042015 29 113 1.6 3.2 0.00 0.00 0.00 51 1014.8
20260901041016 29 113 3.2 6.4 0.00 0.00 0.00 51 1014.8
20260901040016 29 113 1.6 4.8 0.00 0.00 0.00 51 1014.7
20260901035015 29 113 1.6 4.8 0.00 0.00 0.00 51 1014.8
20260901034016 29 135 3.2 8.0 0.00 0.00 0.00 51 1014.7
20260901033035 29 0.0 4.8 0.00 0.00 0.00 51 1014.7
20260901032016 30 113 3.2 6.4 0.00 0.00 0.00 50 1014.7
20260901030015 30 113 3.2 4.8 0.00 0.00 0.00 48 1014.5
20260901025015 30 113 3.2 4.8 0.00 0.00 0.00 48 1014.4
20260901024015 30 113 1.6 4.8 0.00 0.00 0.00 47 1014.2
20260901023016 31 113 3.2 4.8 0.00 0.00 0.00 47 1014.2
20260901022015 31 113 1.6 3.2 0.00 0.00 0.00 46 1014.1
20260901021015 31 113 3.2 4.8 0.00 0.00 0.00 45 1013.9
20260901020015 31 113 1.6 4.8 0.00 0.00 0.00 44 1013.9
20260901015015 32 0.0 0.0 0.00 0.00 0.00 44 1013.6
20260901014015 32 113 3.2 4.8 0.00 0.00 0.00 43 1013.5
20260901013015 32 113 3.2 6.4 0.00 0.00 0.00 42 1013.5
20260901012016 33 113 4.8 11.3 0.00 0.00 0.00 41 1013.4
20260901011015 33 113 3.2 6.4 0.00 0.00 0.00 41 1013.4
20260901010015 33 113 3.2 9.7 0.00 0.00 0.00 40 1013.3
20260901005015 34 113 4.8 9.7 0.00 0.00 0.00 39 1013.3
20260901004015 34 113 9.7 16.1 0.00 0.00 0.00 38 1013.3
20260901003015 35 113 11.3 17.7 0.00 0.00 0.00 38 1013.2
20260901002015 35 113 9.7 17.7 0.00 0.00 0.00 37 1013.3
20260901001015 35 113 12.9 17.7 0.00 0.00 0.00 36 1013.3
20260901000015 35 113 11.3 20.9 0.00 0.00 0.00 36 1013.3
20260831235015 36 113 14.5 25.7 0.00 0.00 0.00 36 1013.3
20260831234016 36 135 6.4 12.9 0.00 0.00 0.00 35 1013.4
20260831233015 36 113 8.0 19.3 0.00 0.00 0.00 35 1013.3
20260831232017 36 158 6.4 12.9 0.00 0.00 0.00 34 1013.4
20260831231017 36 113 12.9 19.3 0.00 0.00 0.00 33 1013.4
20260831230017 36 113 12.9 22.5 0.00 0.00 0.00 34 1013.3
20260831225017 36 113 6.4 14.5 0.00 0.00 0.00 33 1013.4
20260831224017 37 113 11.3 19.3 0.00 0.00 0.00 33 1013.5
20260831223017 37 113 19.3 27.4 0.00 0.00 0.00 32 1013.5
20260831222017 36 158 9.7 16.1 0.00 0.00 0.00 32 1013.5
20260831221017 36 135 12.9 20.9 0.00 0.00 0.00 33 1013.6
20260831220018 36 113 8.0 16.1 0.00 0.00 0.00 33 1013.7
20260831215015 36 113 14.5 20.9 0.00 0.00 0.00 32 1013.8
20260831214017 36 113 14.5 22.5 0.00 0.00 0.00 33 1013.9
20260831213015 37 113 11.3 19.3 0.00 0.00 0.00 32 1013.9
20260831212037 37 113 16.1 25.7 0.00 0.00 0.00 33 1014.1
20260831211015 36 113 11.3 20.9 0.00 0.00 0.00 34 1014.2
20260831210017 37 90 11.3 24.1 0.00 0.00 0.00 33 1014.3
20260831205015 37 68 12.9 22.5 0.00 0.00 0.00 32 1014.5
20260831204017 37 113 16.1 32.2 0.00 0.00 0.00 33 1014.6
20260831203017 37 135 14.5 24.1 0.00 0.00 0.00 33 1014.9
20260831202017 37 158 6.4 22.5 0.00 0.00 0.00 33 1014.9
20260831201017 37 158 8.0 30.6 0.00 0.00 0.00 35 1015.1
20260831200017 36 135 12.9 22.5 0.00 0.00 0.00 35 1015.2
20260831195017 37 90 11.3 22.5 0.00 0.00 0.00 34 1015.3
20260831194017 37 113 12.9 20.9 0.00 0.00 0.00 35 1015.3
20260831193037 36 113 8.0 20.9 0.00 0.00 0.00 37 1015.5
20260831192017 36 135 19.3 37.0 0.00 0.00 0.00 36 1015.7
20260831191037 37 113 14.5 27.4 0.00 0.00 0.00 37 1015.8
20260831190017 37 135 19.3 33.8 0.00 0.00 0.00 36 1015.9
20260831185017 37 113 17.7 24.1 0.00 0.00 0.00 36 1016.0
20260831184017 37 135 16.1 24.1 0.00 0.00 0.00 36 1016.1
20260831183017 37 135 17.7 30.6 0.00 0.00 0.00 36 1016.1
20260831182017 36 135 11.3 24.1 0.00 0.00 0.00 38 1016.2
20260831181017 36 135 17.7 32.2 0.00 0.00 0.00 37 1016.5
20260831180017 36 203 4.8 22.5 0.00 0.00 0.00 38 1016.6
20260831175017 36 158 9.7 27.4 0.00 0.00 0.00 37 1016.9
20260831174017 36 113 4.8 16.1 0.00 0.00 0.00 38 1017.1
20260831173017 36 135 11.3 30.6 0.00 0.00 0.00 39 1017.2
20260831172037 36 135 9.7 19.3 0.00 0.00 0.00 39 1017.2
20260831171037 35 135 12.9 22.5 0.00 0.00 0.00 40 1017.3
20260831170017 35 158 9.7 20.9 0.00 0.00 0.00 39 1017.4
20260831165017 35 135 11.3 20.9 0.00 0.00 0.00 40 1017.4
20260831164017 35 135 3.2 20.9 0.00 0.00 0.00 40 1017.3
20260831163017 35 158 8.0 17.7 0.00 0.00 0.00 41 1017.3
20260831162017 34 158 4.8 16.1 0.00 0.00 0.00 43 1017.3
20260831161037 34 135 4.8 17.7 0.00 0.00 0.00 44 1017.2
20260831160017 33 158 6.4 19.3 0.00 0.00 0.00 45 1017.2
20260831155017 33 158 1.6 20.9 0.00 0.00 0.00 47 1017.2
20260831154017 33 158 4.8 16.1 0.00 0.00 0.00 50 1017.2
20260831153017 32 158 3.2 12.9 0.00 0.00 0.00 52 1017.1
20260831152037 32 158 4.8 16.1 0.00 0.00 0.00 54 1017.0
20260831151037 31 158 1.6 8.0 0.00 0.00 0.00 56 1017.0
20260831150017 31 158 3.2 22.5 0.00 0.00 0.00 60 1017.0
20260831145037 30 225 1.6 4.8 0.00 0.00 0.00 61 1016.9
20260831144017 30 203 1.6 9.7 0.00 0.00 0.00 63 1016.9
20260831143017 29 180 3.2 16.1 0.00 0.00 0.00 64 1016.9
20260831142037 29 158 4.8 16.1 0.00 0.00 0.00 66 1016.9
20260831141017 28 158 3.2 17.7 0.00 0.00 0.00 68 1016.9
20260831140017 28 158 6.4 16.1 0.00 0.00 0.00 70 1016.9
20260831135037 27 158 4.8 9.7 0.00 0.00 0.00 72 1016.8
20260831134017 27 158 6.4 19.3 0.00 0.00 0.00 73 1016.7
20260831133017 27 158 6.4 16.1 0.00 0.00 0.00 74 1016.6
20260831132037 27 158 8.0 17.7 0.00 0.00 0.00 75 1016.3
20260831131017 26 158 8.0 20.9 0.00 0.00 0.00 76 1016.3
20260831130017 26 158 8.0 19.3 0.00 0.00 0.00 77 1016.2
20260831125017 26 158 8.0 17.7 0.00 0.00 0.00 78 1016.1
20260831124017 26 158 4.8 12.9 0.00 0.00 0.00 78 1015.8